Back to catalog

COSMOS 2576

AliveNavigationSSO
NORAD 59773·PAYLOAD·🇷🇺 Russia

Launched May 16, 2024 from Plesetsk Cosmodrome

Loading…

Next Passes (next 24 hours)

TLE

FreshSource: Space-Track

Epoch: Sep 14, 2026, 18:05 UTC

1 59773U 24092A   26257.75355705  .00005744  00000-0  26206-3 0  9996
2 59773  97.4464  12.5600 0013533  63.5003 296.7619 15.20931753129999

Track COSMOS 2576 in real time with AllMySat

Download on the App Store